Time,TemperatureF,DewpointF,PressureIn,WindDirection,WindDirectionDegrees,WindSpeedMPH,WindSpeedGustMPH,Humidity,HourlyPrecipIn,Conditions,Clouds,dailyrainin,SoftwareType,DateUTC
2013-06-27 00:08:00,65.3,62.0,29.82,West,265,2.0,-999.0,88,-99.99,,,0.00,weatherlink.com 1.10,2013-06-27 04:08:00,
2013-06-27 00:23:00,65.2,62.0,29.81,NNW,345,1.0,-999.0,89,-99.99,,,0.00,weatherlink.com 1.10,2013-06-27 04:23:00,
2013-06-27 00:38:00,65.0,62.0,29.80,WNW,298,5.0,-999.0,90,-99.99,,,0.00,weatherlink.com 1.10,2013-06-27 04:38:00,
2013-06-27 00:53:00,65.5,62.0,29.80,WNW,286,7.0,-999.0,88,-99.99,,,0.00,weatherlink.com 1.10,2013-06-27 04:53:00,
2013-06-27 01:08:00,65.6,62.0,29.78,NW,322,10.0,-999.0,87,-99.99,,,0.00,weatherlink.com 1.10,2013-06-27 05:08:00,
2013-06-27 01:23:00,65.3,61.0,29.76,South,190,2.0,-999.0,86,-99.99,,,0.00,weatherlink.com 1.10,2013-06-27 05:23:00,
2013-06-27 01:38:00,65.3,61.0,29.75,North,350,10.0,-999.0,87,-99.99,,,0.00,weatherlink.com 1.10,2013-06-27 05:38:00,
2013-06-27 01:53:00,65.3,62.0,29.75,ESE,103,3.0,-999.0,88,-99.99,,,0.00,weatherlink.com 1.10,2013-06-27 05:53:00,
2013-06-27 02:08:00,65.2,61.0,29.74,WNW,285,2.0,-999.0,87,-99.99,,,0.00,weatherlink.com 1.10,2013-06-27 06:08:00,
2013-06-27 02:23:00,65.5,61.0,29.75,WSW,250,1.0,-999.0,86,-99.99,,,0.00,weatherlink.com 1.10,2013-06-27 06:23:00,
2013-06-27 02:38:00,65.5,62.0,29.75,West,277,4.0,-999.0,87,-99.99,,,0.00,weatherlink.com 1.10,2013-06-27 06:38:00,
2013-06-27 02:53:00,65.2,62.0,29.73,SSW,200,3.0,-999.0,88,-99.99,,,0.00,weatherlink.com 1.10,2013-06-27 06:53:00,
2013-06-27 03:08:00,64.7,62.0,29.73,WSW,239,4.0,-999.0,89,-99.99,,,0.00,weatherlink.com 1.10,2013-06-27 07:08:00,
2013-06-27 03:24:00,64.5,61.0,29.72,West,262,3.0,-999.0,88,-99.99,,,0.00,weatherlink.com 1.10,2013-06-27 07:24:00,
2013-06-27 03:39:00,64.7,61.0,29.71,WNW,302,6.0,-999.0,88,-99.99,,,0.00,weatherlink.com 1.10,2013-06-27 07:39:00,
2013-06-27 03:54:00,63.5,60.0,29.71,SSW,208,4.0,-999.0,89,-99.99,,,0.00,weatherlink.com 1.10,2013-06-27 07:54:00,
2013-06-27 04:09:00,60.2,57.0,29.75,East,99,7.0,-999.0,90,-99.99,,,0.02,weatherlink.com 1.10,2013-06-27 08:09:00,
2013-06-27 04:24:00,59.0,57.0,29.79,WSW,237,7.0,-999.0,94,-99.99,,,0.03,weatherlink.com 1.10,2013-06-27 08:24:00,
2013-06-27 04:39:00,58.4,57.0,29.79,East,94,0.0,-999.0,95,-99.99,,,0.05,weatherlink.com 1.10,2013-06-27 08:39:00,
2013-06-27 04:54:00,58.7,57.0,29.80,NE,51,0.0,-999.0,94,-99.99,,,0.06,weatherlink.com 1.10,2013-06-27 08:54:00,
2013-06-27 05:09:00,58.4,57.0,29.78,NE,51,0.0,-999.0,96,-99.99,,,0.08,weatherlink.com 1.10,2013-06-27 09:09:00,
2013-06-27 05:24:00,58.1,57.0,29.78,West,259,0.0,-999.0,96,-99.99,,,0.09,weatherlink.com 1.10,2013-06-27 09:24:00,
2013-06-27 05:39:00,58.4,57.0,29.77,SW,236,3.0,-999.0,95,-99.99,,,0.11,weatherlink.com 1.10,2013-06-27 09:39:00,
2013-06-27 05:54:00,59.5,58.0,29.79,SW,223,4.0,-999.0,96,-99.99,,,0.12,weatherlink.com 1.10,2013-06-27 09:54:00,
2013-06-27 06:09:00,60.1,59.0,29.77,SE,146,3.0,-999.0,95,-99.99,,,0.14,weatherlink.com 1.10,2013-06-27 10:09:00,
2013-06-27 06:24:00,59.8,59.0,29.77,West,273,2.0,-999.0,96,-99.99,,,0.15,weatherlink.com 1.10,2013-06-27 10:24:00,
2013-06-27 06:39:00,59.8,59.0,29.76,WNW,300,4.0,-999.0,97,-99.99,,,0.17,weatherlink.com 1.10,2013-06-27 10:39:00,
2013-06-27 06:54:00,60.4,60.0,29.76,WSW,244,0.0,-999.0,98,-99.99,,,0.19,weatherlink.com 1.10,2013-06-27 10:54:00,
2013-06-27 07:09:00,61.3,61.0,29.75,West,281,8.0,-999.0,97,-99.99,,,0.21,weatherlink.com 1.10,2013-06-27 11:09:00,
2013-06-27 07:24:00,62.3,61.0,29.75,East,82,2.0,-999.0,95,-99.99,,,0.22,weatherlink.com 1.10,2013-06-27 11:24:00,
2013-06-27 07:39:00,61.8,61.0,29.74,NE,54,3.0,-999.0,96,-99.99,,,0.24,weatherlink.com 1.10,2013-06-27 11:39:00,
2013-06-27 07:54:00,61.6,60.0,29.74,ENE,70,0.0,-999.0,94,-99.99,,,0.26,weatherlink.com 1.10,2013-06-27 11:54:00,
2013-06-27 08:09:00,61.6,60.0,29.76,NW,312,0.0,-999.0,95,-99.99,,,0.28,weatherlink.com 1.10,2013-06-27 12:09:00,
2013-06-27 08:24:00,61.6,61.0,29.76,NW,317,2.0,-999.0,97,-99.99,,,0.30,weatherlink.com 1.10,2013-06-27 12:24:00,
2013-06-27 08:39:00,61.6,61.0,29.76,NW,319,2.0,-999.0,97,-99.99,,,0.31,weatherlink.com 1.10,2013-06-27 12:39:00,
2013-06-27 08:54:00,62.4,62.0,29.76,West,261,5.0,-999.0,97,-99.99,,,0.33,weatherlink.com 1.10,2013-06-27 12:54:00,
2013-06-27 09:09:00,65.0,63.0,29.75,West,280,3.0,-999.0,92,-99.99,,,0.34,weatherlink.com 1.10,2013-06-27 13:09:00,
2013-06-27 09:24:00,65.5,62.0,29.75,NNE,13,0.0,-999.0,88,-99.99,,,0.36,weatherlink.com 1.10,2013-06-27 13:24:00,
2013-06-27 09:39:00,64.8,62.0,29.75,NW,317,6.0,-999.0,89,-99.99,,,0.37,weatherlink.com 1.10,2013-06-27 13:39:00,
2013-06-27 09:54:00,65.2,62.0,29.74,SW,226,1.0,-999.0,89,-99.99,,,0.39,weatherlink.com 1.10,2013-06-27 13:54:00,
2013-06-27 10:09:00,65.6,63.0,29.73,WSW,244,3.0,-999.0,90,-99.99,,,0.40,weatherlink.com 1.10,2013-06-27 14:09:00,
2013-06-27 10:24:00,66.6,63.0,29.73,NE,49,3.0,-999.0,89,-99.99,,,0.41,weatherlink.com 1.10,2013-06-27 14:24:00,
2013-06-27 10:39:00,67.4,64.0,29.73,SSW,206,12.0,-999.0,87,-99.99,,,0.42,weatherlink.com 1.10,2013-06-27 14:39:00,
2013-06-27 10:54:00,67.1,63.0,29.72,SSW,192,10.0,-999.0,87,-99.99,,,0.43,weatherlink.com 1.10,2013-06-27 14:54:00,
2013-06-27 11:09:00,66.1,63.0,29.73,SW,214,2.0,-999.0,89,-99.99,,,0.44,weatherlink.com 1.10,2013-06-27 15:09:00,
2013-06-27 11:24:00,66.9,64.0,29.73,WSW,244,5.0,-999.0,89,-99.99,,,0.45,weatherlink.com 1.10,2013-06-27 15:24:00,
2013-06-27 11:39:00,67.9,64.0,29.72,SSW,210,10.0,-999.0,86,-99.99,,,0.46,weatherlink.com 1.10,2013-06-27 15:39:00,
2013-06-27 11:54:00,68.4,65.0,29.73,SW,223,10.0,-999.0,88,-99.99,,,0.47,weatherlink.com 1.10,2013-06-27 15:54:00,
2013-06-27 12:09:00,67.9,64.0,29.72,West,265,3.0,-999.0,88,-99.99,,,0.48,weatherlink.com 1.10,2013-06-27 16:09:00,
2013-06-27 12:24:00,68.8,65.0,29.72,North,11,0.0,-999.0,86,-99.99,,,0.49,weatherlink.com 1.10,2013-06-27 16:24:00,
2013-06-27 12:39:00,70.1,65.0,29.71,West,281,4.0,-999.0,83,-99.99,,,0.49,weatherlink.com 1.10,2013-06-27 16:39:00,
2013-06-27 12:54:00,70.6,64.0,29.70,SW,235,9.0,-999.0,80,-99.99,,,0.49,weatherlink.com 1.10,2013-06-27 16:54:00,
2013-06-27 13:09:00,70.6,65.0,29.70,East,94,0.0,-999.0,83,-99.99,,,0.49,weatherlink.com 1.10,2013-06-27 17:09:00,
2013-06-27 13:24:00,71.5,65.0,29.70,SE,144,3.0,-999.0,81,-99.99,,,0.49,weatherlink.com 1.10,2013-06-27 17:24:00,
2013-06-27 13:39:00,70.8,67.0,29.69,WSW,253,2.0,-999.0,86,-99.99,,,0.49,weatherlink.com 1.10,2013-06-27 17:39:00,
2013-06-27 13:54:00,71.1,65.0,29.70,SW,217,1.0,-999.0,80,-99.99,,,0.49,weatherlink.com 1.10,2013-06-27 17:54:00,
2013-06-27 14:09:00,71.8,66.0,29.69,East,88,0.0,-999.0,81,-99.99,,,0.49,weatherlink.com 1.10,2013-06-27 18:09:00,
2013-06-27 14:24:00,70.9,64.0,29.69,West,266,3.0,-999.0,79,-99.99,,,0.49,weatherlink.com 1.10,2013-06-27 18:24:00,
2013-06-27 14:39:00,71.5,65.0,29.69,SSE,150,2.0,-999.0,79,-99.99,,,0.49,weatherlink.com 1.10,2013-06-27 18:39:00,
2013-06-27 14:54:00,72.8,65.0,29.69,WSW,248,0.0,-999.0,77,-99.99,,,0.49,weatherlink.com 1.10,2013-06-27 18:54:00,
2013-06-27 15:09:00,73.2,64.0,29.68,SSW,200,5.0,-999.0,72,-99.99,,,0.49,weatherlink.com 1.10,2013-06-27 19:09:00,
2013-06-27 15:24:00,71.8,63.0,29.69,WSW,238,4.0,-999.0,74,-99.99,,,0.49,weatherlink.com 1.10,2013-06-27 19:24:00,
2013-06-27 15:39:00,72.3,65.0,29.70,WSW,240,0.0,-999.0,79,-99.99,,,0.49,weatherlink.com 1.10,2013-06-27 19:39:00,
2013-06-27 15:54:00,74.2,66.0,29.67,SW,231,7.0,-999.0,75,-99.99,,,0.49,weatherlink.com 1.10,2013-06-27 19:54:00,
2013-06-27 16:09:00,73.9,64.0,29.66,ENE,69,1.0,-999.0,72,-99.99,,,0.49,weatherlink.com 1.10,2013-06-27 20:09:00,
2013-06-27 16:24:00,73.2,64.0,29.68,NW,316,3.0,-999.0,73,-99.99,,,0.49,weatherlink.com 1.10,2013-06-27 20:24:00,
2013-06-27 16:39:00,73.0,64.0,29.68,SW,221,1.0,-999.0,73,-99.99,,,0.49,weatherlink.com 1.10,2013-06-27 20:39:00,
2013-06-27 16:54:00,73.2,64.0,29.67,WSW,244,7.0,-999.0,74,-99.99,,,0.49,weatherlink.com 1.10,2013-06-27 20:54:00,
2013-06-27 17:09:00,72.8,64.0,29.67,WNW,283,5.0,-999.0,74,-99.99,,,0.49,weatherlink.com 1.10,2013-06-27 21:09:00,
2013-06-27 17:24:00,71.6,63.0,29.67,NNW,327,0.0,-999.0,73,-99.99,,,0.49,weatherlink.com 1.10,2013-06-27 21:24:00,
2013-06-27 17:39:00,72.1,64.0,29.68,WSW,237,3.0,-999.0,76,-99.99,,,0.49,weatherlink.com 1.10,2013-06-27 21:39:00,
2013-06-27 17:54:00,70.9,63.0,29.68,SSW,207,0.0,-999.0,77,-99.99,,,0.49,weatherlink.com 1.10,2013-06-27 21:54:00,
2013-06-27 18:09:00,69.9,62.0,29.68,SE,142,3.0,-999.0,77,-99.99,,,0.49,weatherlink.com 1.10,2013-06-27 22:09:00,
2013-06-27 18:24:00,69.3,62.0,29.67,WNW,297,0.0,-999.0,77,-99.99,,,0.49,weatherlink.com 1.10,2013-06-27 22:24:00,
2013-06-27 18:39:00,69.3,61.0,29.68,WNW,295,7.0,-999.0,74,-99.99,,,0.49,weatherlink.com 1.10,2013-06-27 22:39:00,
2013-06-27 19:40:00,67.8,61.0,29.68,SSW,211,1.0,-999.0,78,-99.99,,,0.49,weatherlink.com 1.10,2013-06-27 23:40:00,
2013-06-27 19:55:00,67.3,62.0,29.68,SW,225,0.0,-999.0,82,-99.99,,,0.49,weatherlink.com 1.10,2013-06-27 23:55:00,
2013-06-27 20:10:00,66.9,61.0,29.68,SW,231,0.0,-999.0,82,-99.99,,,0.49,weatherlink.com 1.10,2013-06-28 00:10:00,
2013-06-27 20:25:00,66.6,61.0,29.68,WSW,248,4.0,-999.0,82,-99.99,,,0.49,weatherlink.com 1.10,2013-06-28 00:25:00,
2013-06-27 20:40:00,66.4,60.0,29.68,South,172,1.0,-999.0,81,-99.99,,,0.49,weatherlink.com 1.10,2013-06-28 00:40:00,
2013-06-27 20:55:00,66.4,60.0,29.70,WNW,290,2.0,-999.0,81,-99.99,,,0.49,weatherlink.com 1.10,2013-06-28 00:55:00,
2013-06-27 21:10:00,66.0,61.0,29.70,WSW,254,4.0,-999.0,84,-99.99,,,0.49,weatherlink.com 1.10,2013-06-28 01:10:00,
2013-06-27 21:40:00,65.6,61.0,29.69,SW,234,4.0,-999.0,84,-99.99,,,0.49,weatherlink.com 1.10,2013-06-28 01:40:00,
2013-06-27 21:55:00,66.0,61.0,29.70,WNW,282,2.0,-999.0,84,-99.99,,,0.49,weatherlink.com 1.10,2013-06-28 01:55:00,
2013-06-27 22:25:00,63.4,61.0,29.73,NNE,29,2.0,-999.0,93,-99.99,,,0.50,weatherlink.com 1.10,2013-06-28 02:25:00,
2013-06-27 22:55:00,62.6,61.0,29.71,West,261,1.0,-999.0,94,-99.99,,,0.50,weatherlink.com 1.10,2013-06-28 02:55:00,
2013-06-27 23:10:00,62.4,60.0,29.72,NW,305,2.0,-999.0,93,-99.99,,,0.50,weatherlink.com 1.10,2013-06-28 03:10:00,
2013-06-27 23:25:00,62.1,61.0,29.71,WNW,297,1.0,-999.0,95,-99.99,,,0.51,weatherlink.com 1.10,2013-06-28 03:25:00,
2013-06-27 23:40:00,62.4,60.0,29.72,SSW,200,1.0,-999.0,93,-99.99,,,0.51,weatherlink.com 1.10,2013-06-28 03:40:00,
2013-06-27 23:55:00,62.7,60.0,29.71,West,281,0.0,-999.0,92,-99.99,,,0.51,weatherlink.com 1.10,2013-06-28 03:55:00,